Weather History for New River MCAS, NC

Change the Weather History Date:

Wednesday, February 13, 2013

  Actual Average Record
Temperature  
Mean Temperature 52 °F -  
Max Temperature 57 °F 56 °F 71 °F (2009)
Min Temperature 46 °F 35 °F 23 °F (2003)
Degree Days  
Heating Degree Days 14    
Growing Degree Days 2 (Base 50)    
Moisture  
Dew Point 48 °F    
Average Humidity 87    
Maximum Humidity 94    
Minimum Humidity 71    
Precipitation  
Precipitation 0.32 in - - ()
Sea Level Pressure  
Sea Level Pressure 29.77 in    
Wind  
Wind Speed 7 mph (NNW)    
Max Wind Speed 14 mph    
Max Gust Speed 24 mph    
Visibility 6 miles    
Events Rain    
Averages and records for this station are not official NWS values.
T = Trace of Precipitation, MM = Missing Value Source: NWS Daily Summary

Daily Weather History Graph

Daily Weather History Graph

Search for Another Location

Airport:

Trip Planner

Search our weather history database for the weather conditions in past years. The results will help you decide how hot, cold, wet, or windy it might be!

Date:

Astronomy

Feb. 13, 2013 Rise Set
Actual Time 6:57 AM EST 5:51 PM EST
Civil Twilight 6:31 AM EST 6:17 PM EST
Nautical Twilight 6:01 AM EST 6:46 PM EST
Astronomical Twilight 5:32 AM EST 7:16 PM EST
Moon 8:36 AM EST (2/13) 9:39 PM EST (2/13)
Length of Visible Light 11h 45m
Length of Day
10h 54m
Waxing Crescent, 13% of the Moon is Illuminated
Feb 13
Waxing Crescent
Feb 17
First Quarter
Feb 25
Full
Mar 4
Last Quarter
Mar 11
New

Hourly Weather History & Observations

Time (EST) Temp. Windchill Dew Point Humidity Pressure Visibility Wind Dir Wind Speed Gust Speed Precip Events Conditions
12:56 AM 51.1 °F - 48.0 °F 89% 29.99 in 8.0 mi NE 3.5 mph - 0.06 in Rain Light Rain
1:56 AM 50.0 °F - 45.0 °F 83% 29.92 in 7.0 mi ENE 6.9 mph - 0.05 in Rain Light Rain
2:56 AM 50.0 °F - 45.0 °F 83% 29.89 in 7.0 mi East 8.1 mph - 0.01 in Rain Light Rain
3:56 AM 48.9 °F - 44.1 °F 83% 29.84 in 7.0 mi East 11.5 mph - 0.05 in Rain Light Rain
4:33 AM 48.2 °F - 44.6 °F 87% 29.84 in 10.0 mi ENE 8.1 mph - 0.02 in   Overcast
4:56 AM 48.0 °F - 44.1 °F 86% 29.84 in 10.0 mi East 10.4 mph - 0.03 in   Overcast
5:56 AM 48.0 °F - 44.1 °F 86% 29.84 in 4.0 mi ENE 8.1 mph - 0.00 in Rain Light Rain
6:09 AM 46.4 °F 43.5 °F 44.6 °F 93% 29.84 in 2.5 mi NE 5.8 mph - 0.01 in Rain Light Rain
6:20 AM 46.4 °F 42.9 °F 44.6 °F 93% 29.84 in 3.0 mi ENE 6.9 mph - 0.02 in Rain Light Rain
6:41 AM 46.4 °F 44.3 °F 44.6 °F 93% 29.83 in 3.0 mi ENE 4.6 mph - 0.04 in Rain Light Rain
6:56 AM 46.9 °F - 44.1 °F 90% 29.83 in 3.0 mi NE 6.9 mph - 0.05 in Rain Light Rain
7:56 AM 48.0 °F - 45.0 °F 89% 29.81 in 5.0 mi NE 5.8 mph - 0.01 in   Overcast
8:03 AM 48.2 °F - 44.6 °F 87% 29.81 in 3.0 mi NNE 5.8 mph - N/A   Overcast
8:56 AM 48.0 °F - 45.0 °F 89% 29.81 in 5.0 mi North 5.8 mph - 0.00 in   Overcast
9:22 AM 48.2 °F - 44.6 °F 87% 29.79 in 1.8 mi NNE 8.1 mph - N/A   Overcast
9:56 AM 48.0 °F - 46.0 °F 93% 29.78 in 2.5 mi North 8.1 mph - 0.00 in   Overcast
10:12 AM 48.2 °F - 44.6 °F 87% 29.80 in 3.0 mi NNW 8.1 mph - N/A   Overcast
10:30 AM 48.2 °F - 46.4 °F 93% 29.79 in 1.5 mi Variable 4.6 mph - N/A   Overcast
10:54 AM 48.2 °F - 46.4 °F 93% 29.77 in 5.0 mi NNE 5.8 mph - N/A   Overcast
10:56 AM 48.9 °F - 46.9 °F 93% 29.78 in 6.0 mi North 5.8 mph - N/A   Overcast
11:56 AM 51.1 °F - 46.9 °F 86% 29.75 in 10.0 mi Calm Calm - N/A   Overcast
12:56 PM 52.0 °F - 48.0 °F 86% 29.71 in 10.0 mi Calm Calm - N/A   Overcast
1:56 PM 53.1 °F - 48.9 °F 86% 29.71 in 5.0 mi Calm Calm - N/A   Overcast
2:17 PM 51.8 °F - 50.0 °F 94% 29.68 in 2.5 mi Calm Calm - N/A   Overcast
2:28 PM 53.6 °F - 50.0 °F 88% 29.65 in 1.0 mi SSE 8.1 mph - N/A   Overcast
3:03 PM 55.4 °F - 51.8 °F 88% 29.69 in 5.0 mi WSW 11.5 mph 18.4 mph N/A   Overcast
3:56 PM 57.0 °F - 54.0 °F 89% 29.69 in 5.0 mi SW 9.2 mph - N/A   Overcast
4:03 PM 57.2 °F - 53.6 °F 88% 29.67 in 6.0 mi SW 9.2 mph - N/A   Overcast
4:56 PM 55.9 °F - 53.1 °F 90% 29.68 in 7.0 mi SW 6.9 mph - N/A   Overcast
5:03 PM 55.4 °F - 53.6 °F 94% 29.68 in 7.0 mi WSW 6.9 mph - N/A   Overcast
5:56 PM 55.9 °F - 53.1 °F 90% 29.70 in 6.0 mi WSW 5.8 mph - N/A   Overcast
6:02 PM 57.2 °F - 53.6 °F 88% 29.69 in 8.0 mi WSW 8.1 mph - N/A   Mostly Cloudy
6:13 PM 57.2 °F - 53.6 °F 88% 29.69 in 7.0 mi WSW 12.7 mph 20.7 mph N/A   Mostly Cloudy
6:56 PM 57.9 °F - 50.0 °F 75% 29.69 in 5.0 mi WSW 11.5 mph - 0.00 in Rain Light Rain
7:56 PM 55.0 °F - 51.1 °F 86% 29.73 in 7.0 mi West 11.5 mph - 0.03 in Rain Light Rain
8:03 PM 55.4 °F - 50.0 °F 82% 29.70 in 7.0 mi West 12.7 mph - 0.01 in Rain Light Rain
8:56 PM 53.1 °F - 46.9 °F 80% 29.74 in 9.0 mi West 13.8 mph 24.2 mph 0.03 in Rain Light Rain
9:56 PM 53.1 °F - 46.0 °F 77% 29.78 in 10.0 mi West 9.2 mph - 0.00 in   Partly Cloudy
10:21 PM 51.8 °F - 44.6 °F 76% 29.77 in 10.0 mi West 12.7 mph 19.6 mph N/A   Mostly Cloudy
10:56 PM 53.1 °F - 44.1 °F 71% 29.79 in 10.0 mi West 11.5 mph 21.9 mph N/A   Overcast
11:56 PM 51.1 °F - 44.1 °F 77% 29.83 in 10.0 mi West 10.4 mph - N/A   Mostly Cloudy